Tracking 18843 objects as of 20-November-2017
HD Live streaming from Space Station
objects crossing your sky now

FENGYUN 1C DEB

Track FENGYUN 1C DEB now!
10-day predictions


NORAD ID: 29945
Int'l Code: 1999-025JT
Perigee: 863.0 km
Apogee: 907.1 km
Inclination: 99.1 °
Period: 102.5 minutes
Semi major axis: 7256 km
RCS: 0.6272 m2 (medium)
Launch date: May 10, 1999
Source: People's Republic of China (PRC)
Launch site: Taiyaun Space Center, China (TSC)

Note: This is SATELLITE DEBRIS
aabbcc
Your satellite tracking list
Your tracking list is empty




NASA's NSSDC Master Catalog

Two Line Element Set (TLE):
1 29945U 99025JT  17323.64077889 +.00000211 +00000-0 +15985-3 0  9994
2 29945 099.1188 342.1451 0030351 294.9247 173.3112 14.04594997556259
Source of the keplerian elements: AFSPC